User: anonymous   Login
Location: Arbon
(43.0005°N, 0.7472°E)
Time: 21:51:51
(UTC+00:00)
Language:

Tiros 1 despin weight - Orbit

View from above orbital plane
View from above orbital plane
View from above satellite
View from above satellite

Ground track
Ground track

The orbit data is extracted from the following two-line orbital elements,

1 00115U 60002D   20339.84655194  .00000125  00000-0  41770-4 0  9995
2 00115  48.1651 174.8384 0034738 279.6002  80.0987 14.83658844217115
Epoch (UTC): 04 December 2020 20:19:02
Eccentricity: 0.0034738
inclination: 48.1651°
perigee height: 593 km
apogee height: 642 km
right ascension of ascending node: 174.8384°
argument of perigee: 279.6002°
revolutions per day: 14.83658844
mean anomaly at epoch: 80.0987°
orbit number at epoch: 21711

The dashed part of the orbit path shows where the satellite is in the earth's shadow,  

DLR